Fulton, NY

4:50 AM EDT on April 25, 2018 (GMT -0400)
Oswego County

Weather History for KFZY - February, 2013

Change the Weather History Date:

Sunday, February 10, 2013

  Actual Average (KSYR) Record (KSYR)
Temperature  
Mean Temperature 18 °F -  
Max Temperature 30 °F 32 °F 56 °F (2001)
Min Temperature 6 °F 13 °F -17 °F (1948)
Degree Days  
Heating Degree Days 47    
Moisture  
Dew Point 8 °F    
Average Humidity 70    
Maximum Humidity 88    
Minimum Humidity 45    
Precipitation  
Precipitation 0.00 in - - ()
Sea Level Pressure  
Sea Level Pressure 30.34 in    
Wind  
Wind Speed 4 mph (ESE)    
Max Wind Speed 9 mph    
Max Gust Speed 18 mph    
Visibility 10 miles    
Events      
Averages and records for this station are not official NWS values.
T = Trace of Precipitation, MM = Missing Value Source: NWS Daily Summary

Daily Weather History Graph

Daily Weather History Graph

Search for Another Location

Airport or City:

Astronomy

Feb. 10, 2013 Rise Set
Actual Time 7:10 AM EST 5:29 PM EST
Civil Twilight 6:40 AM EST 5:59 PM EST
Nautical Twilight 6:06 AM EST 6:33 PM EST
Astronomical Twilight 5:33 AM EST 7:06 PM EST
Moon 6:56 AM EST (2/10) 6:21 PM EST (2/10)
Length of Visible Light 11h 18m
Length of Day
10h 19m
New Moon, 0% of the Moon is Illuminated
Feb 10
New Moon
Feb 17
First Quarter
Feb 25
Full
Mar 4
Last Quarter
Mar 11
New

Hourly Weather History & Observations

Time (EST) Temp. Windchill Dew Point Humidity Pressure Visibility Wind Dir Wind Speed Gust Speed Precip Events Conditions
12:54 AM 9.0 °F 2.4 °F 5.0 °F 84% 30.43 in 10.0 mi SE 3.5 mph - N/A   Clear
1:04 AM 6.8 °F -0.1 °F 3.2 °F 85% 30.39 in 10.0 mi ESE 3.5 mph - N/A   Partly Cloudy
1:54 AM 6.1 °F -2.8 °F 1.9 °F 83% 30.42 in 10.0 mi ESE 4.6 mph - N/A   Scattered Clouds
2:08 AM 6.8 °F -0.1 °F 3.2 °F 85% 30.39 in 10.0 mi SE 3.5 mph - N/A   Mostly Cloudy
2:54 AM 6.1 °F - 3.0 °F 87% 30.43 in 10.0 mi Calm Calm - N/A   Overcast
3:54 AM 8.1 °F - 3.9 °F 83% 30.41 in 10.0 mi Calm Calm - N/A   Overcast
4:54 AM 8.1 °F - 3.9 °F 83% 30.42 in 10.0 mi Calm Calm - N/A   Mostly Cloudy
5:54 AM 7.0 °F 0.1 °F 3.0 °F 84% 30.44 in 10.0 mi ESE 3.5 mph - N/A   Mostly Cloudy
6:15 AM 6.8 °F -0.1 °F 3.2 °F 85% 30.41 in 10.0 mi ESE 3.5 mph - N/A   Overcast
6:29 AM 6.8 °F - 3.2 °F 85% 30.40 in 10.0 mi Calm Calm - N/A   Overcast
6:54 AM 7.0 °F - 3.0 °F 84% 30.44 in 10.0 mi Calm Calm - N/A   Overcast
7:11 AM 6.8 °F - 3.2 °F 85% 30.41 in 10.0 mi Calm Calm - N/A   Scattered Clouds
7:54 AM 7.0 °F - 3.9 °F 87% 30.46 in 10.0 mi Calm Calm - N/A   Clear
8:54 AM 10.9 °F 2.9 °F 7.0 °F 84% 30.47 in 9.0 mi ESE 4.6 mph - N/A   Clear
9:54 AM 15.1 °F 7.7 °F 12.0 °F 88% 30.46 in 10.0 mi ESE 4.6 mph - N/A   Clear
10:54 AM 19.0 °F 11.1 °F 14.0 °F 81% 30.45 in 10.0 mi SE 5.8 mph - N/A   Clear
11:54 AM 21.9 °F 13.4 °F 15.1 °F 75% 30.40 in 10.0 mi ESE 6.9 mph - 0.00 in   Clear
12:54 PM 26.1 °F 17.6 °F 12.0 °F 55% 30.35 in 10.0 mi ESE 8.1 mph 18.4 mph 0.00 in   Clear
1:54 PM 28.0 °F 20.0 °F 12.0 °F 51% 30.33 in 10.0 mi ESE 8.1 mph - 0.00 in   Clear
2:54 PM 30.0 °F 23.2 °F 12.9 °F 49% 30.29 in 10.0 mi ESE 6.9 mph - N/A   Clear
3:54 PM 30.9 °F 22.8 °F 12.9 °F 47% 30.27 in 10.0 mi ESE 9.2 mph - 0.00 in   Clear
5:54 PM 30.0 °F 24.1 °F 12.0 °F 47% 30.23 in 10.0 mi ESE 5.8 mph - N/A   Overcast
6:54 PM 28.9 °F 21.1 °F 10.9 °F 47% 30.21 in 10.0 mi ESE 8.1 mph - N/A   Partly Cloudy
7:54 PM 28.9 °F 20.4 °F 10.0 °F 45% 30.18 in 10.0 mi ESE 9.2 mph - N/A   Clear
8:54 PM 27.0 °F 18.0 °F 9.0 °F 47% 30.16 in 10.0 mi ESE 9.2 mph 18.4 mph N/A   Clear
9:54 PM 28.0 °F 20.8 °F 10.0 °F 47% 30.13 in 10.0 mi ESE 6.9 mph - N/A   Overcast
10:54 PM 28.9 °F 21.1 °F 10.0 °F 45% 30.11 in 10.0 mi ESE 8.1 mph - N/A   Overcast
11:54 PM 28.9 °F 20.4 °F 10.0 °F 45% 30.06 in 10.0 mi SE 9.2 mph 16.1 mph N/A   Overcast